• Em Portugal
  • Lista de países
  • Para 7 dias
  • Temperatura da água
  • Mapas de satélite
  • Mapa do tempo
  • Widgets de tempo
  • user-avatar
    Iniciar Sessão

    Previsão horária em Mauda

    Hoje, 19 Agosto, Domingo

    Tempo Temperatura Precipitação Vento Pressão Humidade
    00:00 +15°C° 0 mm 2 m/s 742 mmHg 94%
    01:00 +15°C° 0 mm 2 m/s 742 mmHg 93%
    02:00 +14°C° 0 mm 2 m/s 742 mmHg 92%
    03:00 +13°C° 0 mm 2 m/s 742 mmHg 91%
    04:00 +13°C° 0 mm 1 m/s 742 mmHg 91%
    05:00 +13°C° 0 mm 1 m/s 742 mmHg 90%
    06:00 +14°C° 0 mm 1 m/s 742 mmHg 86%
    07:00 +16°C° 0 mm 2 m/s 743 mmHg 82%
    08:00 +17°C° 0 mm 2 m/s 743 mmHg 76%
    09:00 +19°C° 0 mm 2 m/s 743 mmHg 70%
    10:00 +20°C° 0 mm 2 m/s 743 mmHg 64%
    11:00 +22°C° 0 mm 3 m/s 743 mmHg 58%
    12:00 +24°C° 0 mm 3 m/s 743 mmHg 57%
    13:00 +24°C° 0 mm 3 m/s 743 mmHg 56%
    14:00 +25°C° 0 mm 3 m/s 742 mmHg 55%
    15:00 +25°C° 0 mm 3 m/s 742 mmHg 57%
    16:00 +25°C° 0 mm 2 m/s 742 mmHg 59%
    17:00 +25°C° 0 mm 2 m/s 742 mmHg 60%
    18:00 +23°C° 0 mm 2 m/s 742 mmHg 66%
    19:00 +22°C° 0 mm 1 m/s 741 mmHg 72%
    20:00 +20°C° 0 mm 1 m/s 741 mmHg 78%
    21:00 +19°C° 0 mm 1 m/s 741 mmHg 80%
    22:00 +19°C° 0 mm 1 m/s 741 mmHg 82%
    23:00 +18°C° 0 mm 1 m/s 741 mmHg 84%

    Amanhã, 20 Agosto, Segunda-feira

    Tempo Temperatura Precipitação Vento Pressão Humidade
    00:00 +18°C° 0 mm 1 m/s 741 mmHg 85%
    01:00 +18°C° 0 mm 1 m/s 740 mmHg 86%
    02:00 +17°C° 0 mm 2 m/s 740 mmHg 88%
    03:00 +16°C° 0 mm 2 m/s 740 mmHg 88%
    04:00 +16°C° 0 mm 2 m/s 739 mmHg 89%
    05:00 +16°C° 0 mm 2 m/s 739 mmHg 89%
    06:00 +18°C° 0 mm 3 m/s 739 mmHg 85%
    07:00 +19°C° 0 mm 3 m/s 739 mmHg 80%
    08:00 +20°C° 0 mm 3 m/s 739 mmHg 76%
    09:00 +22°C° 0 mm 4 m/s 738 mmHg 68%
    10:00 +25°C° 0 mm 4 m/s 738 mmHg 60%
    11:00 +26°C° 0 mm 4 m/s 738 mmHg 53%
    12:00 +27°C° 0 mm 5 m/s 738 mmHg 52%
    13:00 +28°C° 0 mm 5 m/s 737 mmHg 51%
    14:00 +28°C° 0 mm 6 m/s 737 mmHg 50%
    15:00 +28°C° 0,1 mm 5 m/s 737 mmHg 54%
    16:00 +27°C° 0,1 mm 5 m/s 736 mmHg 58%
    17:00 +26°C° 0,1 mm 4 m/s 736 mmHg 63%
    18:00 +23°C° 0,1 mm 4 m/s 736 mmHg 70%
    19:00 +21°C° 0,1 mm 4 m/s 736 mmHg 78%
    20:00 +19°C° 0,1 mm 3 m/s 736 mmHg 85%
    21:00 +19°C° 0 mm 3 m/s 736 mmHg 88%
    22:00 +18°C° 0 mm 3 m/s 736 mmHg 91%
    23:00 +17°C° 0 mm 3 m/s 736 mmHg 94%

    Depois de amanhã, 21 Agosto, Terça-feira

    Tempo Temperatura Precipitação Vento Pressão Humidade
    00:00 +17°C° 0 mm 4 m/s 736 mmHg 93%
    01:00 +15°C° 0 mm 4 m/s 736 mmHg 91%
    02:00 +15°C° 0 mm 4 m/s 736 mmHg 89%
    03:00 +14°C° 0 mm 4 m/s 736 mmHg 89%
    04:00 +13°C° 0 mm 4 m/s 737 mmHg 88%
    05:00 +13°C° 0 mm 4 m/s 737 mmHg 87%
    06:00 +14°C° 0 mm 4 m/s 737 mmHg 85%
    07:00 +15°C° 0 mm 4 m/s 738 mmHg 83%
    08:00 +16°C° 0 mm 5 m/s 738 mmHg 81%
    09:00 +17°C° 0 mm 5 m/s 739 mmHg 75%
    10:00 +19°C° 0 mm 5 m/s 739 mmHg 69%
    11:00 +20°C° 0 mm 5 m/s 740 mmHg 63%
    12:00 +20°C° 0 mm 5 m/s 740 mmHg 61%
    13:00 +20°C° 0 mm 5 m/s 741 mmHg 58%
    14:00 +21°C° 0 mm 5 m/s 741 mmHg 56%
    15:00 +20°C° 0 mm 5 m/s 741 mmHg 56%
    16:00 +20°C° 0 mm 5 m/s 741 mmHg 57%
    17:00 +19°C° 0 mm 5 m/s 742 mmHg 58%
    18:00 +18°C° 0 mm 4 m/s 742 mmHg 65%
    19:00 +15°C° 0 mm 4 m/s 742 mmHg 71%
    20:00 +13°C° 0 mm 3 m/s 742 mmHg 78%
    21:00 +12°C° 0 mm 3 m/s 743 mmHg 81%
    22:00 +12°C° 0 mm 2 m/s 743 mmHg 84%
    23:00 +10°C° 0 mm 2 m/s 744 mmHg 87%

    22 Agosto, Quarta-feira

    Tempo Temperatura Precipitação Vento Pressão Humidade
    00:00 +10°C° 0 mm 2 m/s 744 mmHg 88%
    01:00 +9°C° 0 mm 2 m/s 744 mmHg 89%
    02:00 +10°C° 0 mm 1 m/s 744 mmHg 90%
    03:00 +9°C° 0 mm 1 m/s 744 mmHg 90%
    04:00 +9°C° 0 mm 1 m/s 744 mmHg 90%
    05:00 +9°C° 0 mm 1 m/s 745 mmHg 90%
    06:00 +10°C° 0 mm 1 m/s 745 mmHg 85%
    07:00 +12°C° 0 mm 1 m/s 745 mmHg 79%
    08:00 +14°C° 0 mm 1 m/s 745 mmHg 73%
    09:00 +15°C° 0 mm 1 m/s 745 mmHg 66%
    10:00 +18°C° 0 mm 1 m/s 745 mmHg 59%
    11:00 +20°C° 0 mm 1 m/s 745 mmHg 52%
    12:00 +21°C° 0 mm 1 m/s 745 mmHg 49%
    13:00 +21°C° 0 mm 1 m/s 745 mmHg 46%
    14:00 +22°C° 0 mm 1 m/s 745 mmHg 43%
    15:00 +22°C° 0 mm 1 m/s 745 mmHg 43%
    16:00 +22°C° 0 mm 1 m/s 744 mmHg 44%
    17:00 +22°C° 0 mm 1 m/s 744 mmHg 45%
    18:00 +20°C° 0 mm 1 m/s 744 mmHg 50%
    19:00 +18°C° 0 mm 1 m/s 744 mmHg 55%
    20:00 +15°C° 0 mm 2 m/s 743 mmHg 60%
    21:00 +15°C° 0 mm 2 m/s 743 mmHg 61%
    22:00 +14°C° 0 mm 2 m/s 743 mmHg 63%
    23:00 +12°C° 0 mm 3 m/s 743 mmHg 65%

    23 Agosto, Quinta-feira

    Tempo Temperatura Precipitação Vento Pressão Humidade
    00:00 +12°C° 0 mm 3 m/s 743 mmHg 67%
    01:00 +12°C° 0 mm 3 m/s 743 mmHg 70%
    02:00 +12°C° 0 mm 3 m/s 743 mmHg 72%
    03:00 +12°C° 0 mm 3 m/s 742 mmHg 74%
    04:00 +12°C° 0 mm 3 m/s 742 mmHg 76%
    05:00 +11°C° 0 mm 3 m/s 742 mmHg 78%
    06:00 +13°C° 0 mm 4 m/s 742 mmHg 75%
    07:00 +14°C° 0 mm 4 m/s 742 mmHg 72%
    08:00 +15°C° 0 mm 4 m/s 741 mmHg 69%
    09:00 +18°C° 0 mm 4 m/s 741 mmHg 65%
    10:00 +20°C° 0 mm 4 m/s 741 mmHg 61%
    11:00 +22°C° 0 mm 4 m/s 741 mmHg 57%
    12:00 +23°C° 0 mm 4 m/s 741 mmHg 55%
    13:00 +25°C° 0 mm 4 m/s 741 mmHg 53%
    14:00 +25°C° 0 mm 4 m/s 740 mmHg 51%
    15:00 +25°C° 0 mm 3 m/s 740 mmHg 52%
    16:00 +25°C° 0 mm 3 m/s 740 mmHg 54%
    17:00 +25°C° 0 mm 2 m/s 739 mmHg 56%
    18:00 +22°C° 0 mm 3 m/s 739 mmHg 61%
    19:00 +21°C° 0 mm 3 m/s 739 mmHg 66%
    20:00 +19°C° 0 mm 3 m/s 739 mmHg 71%
    21:00 +18°C° 0 mm 3 m/s 739 mmHg 73%
    22:00 +18°C° 0 mm 3 m/s 738 mmHg 74%
    23:00 +17°C° 0 mm 3 m/s 738 mmHg 76%

    24 Agosto, Sexta-feira

    Tempo Temperatura Precipitação Vento Pressão Humidade
    00:00 +17°C° 0 mm 3 m/s 738 mmHg 79%
    01:00 +17°C° 0 mm 3 m/s 738 mmHg 82%
    02:00 +16°C° 0 mm 3 m/s 738 mmHg 84%
    03:00 +16°C° 0 mm 3 m/s 737 mmHg 87%
    04:00 +16°C° 0 mm 3 m/s 737 mmHg 89%
    05:00 +16°C° 0 mm 3 m/s 737 mmHg 91%
    06:00 +17°C° 0 mm 3 m/s 737 mmHg 88%
    07:00 +18°C° 0 mm 4 m/s 737 mmHg 85%
    08:00 +19°C° 0 mm 4 m/s 737 mmHg 81%
    09:00 +21°C° 0 mm 4 m/s 737 mmHg 75%
    10:00 +23°C° 0 mm 5 m/s 736 mmHg 69%
    11:00 +26°C° 0 mm 5 m/s 736 mmHg 63%
    12:00 +27°C° 0 mm 5 m/s 736 mmHg 60%
    13:00 +28°C° 0 mm 5 m/s 736 mmHg 56%
    14:00 +29°C° 0 mm 6 m/s 735 mmHg 53%
    15:00 +28°C° 0,1 mm 5 m/s 735 mmHg 55%
    16:00 +28°C° 0,1 mm 5 m/s 735 mmHg 57%
    17:00 +28°C° 0,1 mm 5 m/s 734 mmHg 58%
    18:00 +26°C° 0,1 mm 5 m/s 734 mmHg 61%
    19:00 +25°C° 0,1 mm 5 m/s 734 mmHg 63%
    20:00 +22°C° 0,1 mm 5 m/s 734 mmHg 66%
    21:00 +22°C° 0,2 mm 5 m/s 734 mmHg 68%
    22:00 +21°C° 0,2 mm 5 m/s 734 mmHg 70%
    23:00 +20°C° 0,2 mm 5 m/s 734 mmHg 72%
    Mostrar mais